Time,TemperatureF,DewpointF,PressureIn,WindDirection,WindDirectionDegrees,WindSpeedMPH,WindSpeedGustMPH,Humidity,HourlyPrecipIn,Conditions,Clouds,dailyrainin,SoftwareType,DateUTC
2013-11-28 00:12:00,32.0,22.0,29.69,NNW,338,7.0,24.0,67,0.00,,,1.31,,2013-11-28 05:12:00,
2013-11-28 00:22:00,32.0,22.0,29.69,NNW,338,7.0,24.0,67,0.00,,,1.31,,2013-11-28 05:22:00,
2013-11-28 00:43:00,31.0,22.0,29.71,WNW,289,14.0,28.0,68,0.00,,,1.28,,2013-11-28 05:43:00,
2013-11-28 00:53:00,31.0,21.0,29.71,NNW,341,14.0,24.0,67,0.00,,,1.27,,2013-11-28 05:53:00,
2013-11-28 01:22:00,31.0,22.0,29.74,North,351,4.0,21.0,70,0.00,,,1.23,,2013-11-28 06:22:00,
2013-11-28 01:42:00,31.0,23.0,29.75,NNW,346,6.0,20.0,71,0.00,,,1.15,,2013-11-28 06:42:00,
2013-11-28 01:52:00,31.0,22.0,29.76,NNW,332,6.0,23.0,70,0.00,,,1.11,,2013-11-28 06:52:00,
2013-11-28 02:22:00,31.0,21.0,29.78,NW,322,10.0,31.0,67,0.00,,,1.02,,2013-11-28 07:22:00,
2013-11-28 02:42:00,30.0,21.0,29.80,WSW,251,15.0,26.0,68,0.01,,,0.98,,2013-11-28 07:42:00,
2013-11-28 02:52:00,30.0,21.0,29.81,NNW,340,14.0,28.0,68,0.01,,,0.95,,2013-11-28 07:52:00,
2013-11-28 03:22:00,29.0,20.0,29.85,North,9,12.0,23.0,68,0.01,,,0.87,,2013-11-28 08:22:00,
2013-11-28 03:42:00,29.0,21.0,29.87,NNW,346,11.0,23.0,71,0.00,,,0.83,,2013-11-28 08:42:00,
2013-11-28 03:53:00,28.0,21.0,29.87,North,355,7.0,21.0,74,0.00,,,0.79,,2013-11-28 08:53:00,
2013-11-28 04:22:00,28.0,18.0,29.90,NNW,335,8.0,22.0,66,0.00,,,0.71,,2013-11-28 09:22:00,
2013-11-28 04:43:00,28.0,17.0,29.92,NNW,338,10.0,28.0,63,0.00,,,0.67,,2013-11-28 09:43:00,
2013-11-28 04:53:00,28.0,17.0,29.93,WNW,302,12.0,26.0,63,0.00,,,0.65,,2013-11-28 09:53:00,
2013-11-28 05:23:00,28.0,17.0,29.96,NNW,332,4.0,23.0,64,0.00,,,0.58,,2013-11-28 10:23:00,
2013-11-28 05:43:00,28.0,18.0,29.98,NNW,328,8.0,23.0,65,0.00,,,0.50,,2013-11-28 10:43:00,
2013-11-28 05:52:00,28.0,18.0,29.99,NNW,340,5.0,23.0,66,0.00,,,0.49,,2013-11-28 10:52:00,
2013-11-28 06:12:00,27.0,18.0,30.00,NNW,341,5.0,17.0,67,0.00,,,0.46,,2013-11-28 11:12:00,
2013-11-28 06:22:00,27.0,18.0,30.01,NW,320,3.0,20.0,68,0.00,,,0.45,,2013-11-28 11:22:00,
2013-11-28 06:42:00,27.0,20.0,30.02,NNW,342,6.0,20.0,73,0.00,,,0.43,,2013-11-28 11:42:00,
2013-11-28 06:52:00,26.0,18.0,30.03,NNW,332,5.0,21.0,71,0.00,,,0.41,,2013-11-28 11:52:00,
2013-11-28 07:22:00,26.0,18.0,30.07,NNW,340,8.0,14.0,72,0.00,,,0.37,,2013-11-28 12:22:00,
2013-11-28 07:52:00,27.0,19.0,30.11,NW,310,6.0,15.0,71,0.00,,,0.33,,2013-11-28 12:52:00,
2013-11-28 08:22:00,26.0,17.0,30.14,North,350,6.0,16.0,67,0.00,,,0.32,,2013-11-28 13:22:00,
2013-11-28 08:42:00,27.0,18.0,30.15,NNW,337,9.0,15.0,68,0.00,,,0.31,,2013-11-28 13:42:00,
2013-11-28 08:52:00,27.0,18.0,30.16,WNW,296,6.0,17.0,68,0.00,,,0.31,,2013-11-28 13:52:00,
2013-11-28 09:22:00,28.0,18.0,30.16,NW,310,6.0,20.0,65,0.00,,,0.30,,2013-11-28 14:22:00,
2013-11-28 09:42:00,29.0,17.0,30.18,North,1,9.0,22.0,60,0.00,,,0.28,,2013-11-28 14:42:00,
2013-11-28 09:52:00,29.0,16.0,30.18,NW,314,8.0,20.0,59,0.00,,,0.27,,2013-11-28 14:52:00,
2013-11-28 10:22:00,29.0,15.0,30.20,West,274,10.0,24.0,56,0.00,,,0.26,,2013-11-28 15:22:00,
2013-11-28 10:44:00,29.0,15.0,30.21,North,351,9.0,22.0,56,0.00,,,0.24,,2013-11-28 15:44:00,
2013-11-28 10:54:00,29.0,15.0,30.22,North,354,5.0,22.0,55,0.00,,,0.24,,2013-11-28 15:54:00,
2013-11-28 11:13:00,30.0,17.0,30.22,NW,325,6.0,16.0,57,0.00,,,0.24,,2013-11-28 16:13:00,
2013-11-28 11:23:00,31.0,18.0,30.22,NW,320,5.0,14.0,57,0.00,,,0.24,,2013-11-28 16:23:00,
2013-11-28 11:43:00,31.0,16.0,30.22,North,353,9.0,20.0,54,0.00,,,0.23,,2013-11-28 16:43:00,
2013-11-28 11:53:00,31.0,17.0,30.22,NNW,338,9.0,20.0,55,0.00,,,0.23,,2013-11-28 16:53:00,
2013-11-28 12:12:00,32.0,17.0,30.22,NNE,20,9.0,18.0,53,0.00,,,0.23,,2013-11-28 17:12:00,
2013-11-28 12:23:00,32.0,17.0,30.22,North,1,6.0,16.0,54,0.00,,,0.23,,2013-11-28 17:23:00,
2013-11-28 12:42:00,32.0,16.0,30.23,NNW,348,7.0,20.0,52,0.00,,,0.23,,2013-11-28 17:42:00,
2013-11-28 12:52:00,32.0,15.0,30.23,North,11,10.0,20.0,50,0.00,,,0.23,,2013-11-28 17:52:00,
2013-11-28 13:22:00,32.0,15.0,30.24,NNW,328,10.0,22.0,50,0.00,,,0.21,,2013-11-28 18:22:00,
2013-11-28 13:42:00,32.0,15.0,30.24,North,354,9.0,16.0,49,0.00,,,0.20,,2013-11-28 18:42:00,
2013-11-28 13:52:00,32.0,15.0,30.24,NE,36,9.0,17.0,49,0.00,,,0.20,,2013-11-28 18:52:00,
2013-11-28 14:22:00,32.0,14.0,30.25,North,0,7.0,18.0,47,0.00,,,0.17,,2013-11-28 19:22:00,
2013-11-28 14:42:00,31.0,13.0,30.26,North,11,6.0,20.0,47,0.00,,,0.16,,2013-11-28 19:42:00,
2013-11-28 14:52:00,31.0,14.0,30.26,NNW,342,6.0,15.0,48,0.00,,,0.15,,2013-11-28 19:52:00,
2013-11-28 15:12:00,31.0,14.0,30.27,NNW,338,10.0,17.0,48,0.00,,,0.13,,2013-11-28 20:12:00,
2013-11-28 15:22:00,31.0,13.0,30.27,North,355,8.0,18.0,47,0.00,,,0.12,,2013-11-28 20:22:00,
2013-11-28 15:52:00,31.0,14.0,30.29,NNW,344,4.0,12.0,48,0.00,,,0.11,,2013-11-28 20:52:00,
2013-11-28 16:11:00,30.0,13.0,30.30,NNE,33,3.0,13.0,48,0.00,,,0.10,,2013-11-28 21:11:00,
2013-11-28 16:21:00,30.0,13.0,30.31,South,170,0.0,2.0,48,0.00,,,0.10,,2013-11-28 21:21:00,
2013-11-28 16:43:00,30.0,12.0,30.32,NW,311,0.0,2.0,47,0.00,,,0.09,,2013-11-28 21:43:00,
2013-11-28 16:53:00,30.0,12.0,30.32,West,267,1.0,8.0,47,0.00,,,0.09,,2013-11-28 21:53:00,
2013-11-28 17:23:00,29.0,12.0,30.34,West,278,4.0,12.0,49,0.00,,,0.07,,2013-11-28 22:23:00,
2013-11-28 17:42:00,29.0,13.0,30.36,WNW,290,0.0,5.0,51,0.00,,,0.05,,2013-11-28 22:42:00,
2013-11-28 17:53:00,28.0,13.0,30.36,West,271,0.0,6.0,52,0.00,,,0.04,,2013-11-28 22:53:00,
2013-11-28 18:12:00,28.0,14.0,30.37,WNW,286,0.0,2.0,54,0.00,,,0.04,,2013-11-28 23:12:00,
2013-11-28 18:22:00,27.0,14.0,30.37,WNW,285,0.0,3.0,57,0.00,,,0.03,,2013-11-28 23:22:00,
2013-11-28 18:42:00,26.0,17.0,30.38,WNW,285,0.0,1.0,67,0.00,,,0.03,,2013-11-28 23:42:00,
2013-11-28 18:52:00,25.0,16.0,30.39,WNW,285,0.0,2.0,68,0.00,,,0.02,,2013-11-28 23:52:00,
2013-11-28 19:11:00,25.0,17.0,30.40,WNW,285,0.0,0.0,70,0.00,,,0.01,,2013-11-29 00:11:00,
2013-11-28 19:21:00,24.0,16.0,30.40,WNW,285,0.0,0.0,71,0.00,,,0.01,,2013-11-29 00:21:00,
2013-11-28 19:52:00,23.0,16.0,30.41,WNW,285,0.0,0.0,74,0.00,,,0.01,,2013-11-29 00:52:00,
2013-11-28 20:22:00,23.0,16.0,30.42,WNW,285,0.0,0.0,74,0.00,,,0.01,,2013-11-29 01:22:00,
2013-11-28 20:42:00,22.0,16.0,30.42,WNW,285,0.0,0.0,76,0.00,,,0.01,,2013-11-29 01:42:00,
2013-11-28 20:52:00,23.0,16.0,30.42,WNW,285,0.0,0.0,75,0.00,,,0.01,,2013-11-29 01:52:00,
2013-11-28 21:12:00,23.0,16.0,30.43,WNW,285,0.0,0.0,75,0.00,,,0.01,,2013-11-29 02:12:00,
2013-11-28 21:22:00,24.0,18.0,30.43,WNW,285,0.0,0.0,77,0.00,,,0.01,,2013-11-29 02:22:00,
2013-11-28 21:42:00,24.0,18.0,30.43,WNW,284,0.0,0.0,78,0.00,,,0.01,,2013-11-29 02:42:00,
2013-11-28 21:52:00,24.0,18.0,30.43,WNW,285,0.0,0.0,77,0.00,,,0.01,,2013-11-29 02:52:00,
2013-11-28 22:21:00,25.0,17.0,30.44,WNW,285,0.0,0.0,71,0.00,,,0.01,,2013-11-29 03:21:00,
2013-11-28 22:43:00,26.0,16.0,30.45,WNW,284,0.0,1.0,65,0.00,,,0.01,,2013-11-29 03:43:00,
2013-11-28 22:53:00,26.0,16.0,30.45,WNW,285,0.0,2.0,65,0.00,,,0.01,,2013-11-29 03:53:00,
2013-11-28 23:23:00,26.0,16.0,30.45,WNW,285,0.0,2.0,64,0.00,,,0.01,,2013-11-29 04:23:00,
2013-11-28 23:43:00,27.0,16.0,30.45,WNW,285,0.0,2.0,64,0.00,,,0.01,,2013-11-29 04:43:00,
2013-11-28 23:52:00,27.0,16.0,30.45,WNW,284,0.0,1.0,64,0.00,,,0.01,,2013-11-29 04:52:00,